Weather History for PASI - September, 2012

Change the Weather History Date:

Wednesday, September 26, 2012

  Actual Average Record
Temperature  
Mean Temperature 52 °F -  
Max Temperature 59 °F 56 °F 64 °F (1949)
Min Temperature 48 °F 45 °F 31 °F (1956)
Degree Days  
Heating Degree Days 12    
Growing Degree Days 2 (Base 50)    
Moisture  
Dew Point 47 °F    
Average Humidity 78    
Maximum Humidity 97    
Minimum Humidity 53    
Precipitation  
Precipitation 0.68 in - - ()
Sea Level Pressure  
Sea Level Pressure 29.68 in    
Wind  
Wind Speed 11 mph (SE)    
Max Wind Speed 32 mph    
Max Gust Speed 43 mph    
Visibility 9 miles    
Events Rain    
Averages and records for this station are not official NWS values.
T = Trace of Precipitation, MM = Missing Value Source: NWS Daily Summary

Daily Weather History Graph

Daily Weather History Graph

Search for Another Location

Airport or City:

Trip Planner

Search our weather history database for the weather conditions in past years. The results will help you decide how hot, cold, wet, or windy it might be!

Date:

Astronomy

Sep. 26, 2012 Rise Set
Actual Time 6:56 AM AKDT 6:47 PM AKDT
Civil Twilight 6:18 AM AKDT 7:25 PM AKDT
Nautical Twilight 5:32 AM AKDT 8:10 PM AKDT
Astronomical Twilight 4:45 AM AKDT 8:57 PM AKDT
Moon 5:16 PM AKDT (9/26) 2:56 AM AKDT (9/26)
Length of Visible Light 13h 07m
Length of Day
11h 51m
Waxing Gibbous, 89% of the Moon is Illuminated
Sep 26
Waxing Gibbous
Sep 29
Full
Oct 7
Last Quarter
Oct 15
New
Oct 21
First Quarter

Hourly Weather History & Observations

Time (AKDT) Temp. Dew Point Humidity Pressure Visibility Wind Dir Wind Speed Gust Speed Precip Events Conditions
12:53 AM 52.0 °F 48.9 °F 89% 29.91 in 10.0 mi SSE 5.8 mph - N/A   Overcast
1:07 AM 51.8 °F 48.2 °F 88% 29.91 in 10.0 mi SSE 6.9 mph - N/A   Overcast
1:53 AM 51.1 °F 48.0 °F 89% 29.93 in 10.0 mi ESE 6.9 mph - 0.00 in   Overcast
2:53 AM 50.0 °F 48.0 °F 93% 29.93 in 10.0 mi ESE 6.9 mph - N/A   Mostly Cloudy
3:53 AM 48.9 °F 48.0 °F 97% 29.93 in 10.0 mi ESE 5.8 mph - N/A   Mostly Cloudy
4:53 AM 50.0 °F 46.9 °F 89% 29.92 in 10.0 mi SE 8.1 mph - N/A   Mostly Cloudy
5:53 AM 51.1 °F 45.0 °F 80% 29.92 in 10.0 mi ESE 8.1 mph - N/A   Scattered Clouds
6:53 AM 51.1 °F 45.0 °F 80% 29.91 in 10.0 mi ESE 8.1 mph - N/A   Overcast
7:53 AM 52.0 °F 43.0 °F 71% 29.89 in 10.0 mi ESE 10.4 mph - N/A   Overcast
8:53 AM 52.0 °F 43.0 °F 71% 29.88 in 10.0 mi ESE 9.2 mph - N/A   Overcast
9:53 AM 52.0 °F 43.0 °F 71% 29.86 in 10.0 mi ESE 9.2 mph - N/A   Overcast
10:53 AM 53.1 °F 43.0 °F 69% 29.83 in 10.0 mi SE 9.2 mph - N/A   Overcast
11:53 AM 53.1 °F 42.1 °F 66% 29.82 in 10.0 mi SE 8.1 mph - N/A   Overcast
12:53 PM 54.0 °F 42.1 °F 64% 29.79 in 10.0 mi SSE 10.4 mph - N/A   Overcast
1:53 PM 55.0 °F 39.0 °F 55% 29.73 in 10.0 mi ESE 13.8 mph 19.6 mph N/A   Overcast
2:53 PM 55.9 °F 39.0 °F 53% 29.66 in 10.0 mi East 19.6 mph 27.6 mph N/A   Overcast
3:53 PM 55.9 °F 42.1 °F 60% 29.62 in 10.0 mi ESE 15.0 mph 26.5 mph N/A   Overcast
4:53 PM 55.9 °F 46.0 °F 69% 29.58 in 10.0 mi SE 18.4 mph 24.2 mph N/A   Overcast
5:53 PM 57.0 °F 46.0 °F 67% 29.53 in 10.0 mi SE 20.7 mph 27.6 mph N/A   Mostly Cloudy
6:53 PM 54.0 °F 48.9 °F 83% 29.49 in 6.0 mi SSE 12.7 mph 19.6 mph 0.06 in Rain Rain
7:53 PM 54.0 °F 50.0 °F 86% 29.41 in 9.0 mi ESE 16.1 mph - 0.09 in Rain Light Rain
8:53 PM 55.9 °F 50.0 °F 80% 29.38 in 6.0 mi ESE 21.9 mph 33.4 mph 0.05 in Rain Rain
9:53 PM 54.0 °F 51.1 °F 90% 29.35 in 4.0 mi ESE 15.0 mph - 0.21 in Rain Rain
10:53 PM 55.0 °F 51.1 °F 86% 29.27 in 10.0 mi ESE 23.0 mph 32.2 mph 0.11 in Rain Light Rain
11:31 PM 53.6 °F 51.8 °F 94% 29.29 in 3.0 mi South 13.8 mph 27.6 mph 0.08 in Rain Rain
11:40 PM 57.2 °F 53.6 °F 88% 29.29 in 2.5 mi South 27.6 mph 35.7 mph 0.11 in Rain Rain
11:53 PM 57.0 °F 54.0 °F 89% 29.30 in 2.5 mi South 32.2 mph 42.6 mph 0.16 in Rain Rain